Regional Weather Roundup
Issued by NWS Albany, NY

Home | Current Version | Previous Version | Text Only | Print | Product List | Glossary On
Versions: 1 2 3 4 5 6 7 8 9 10 11 12 13 14 15 16 17 18 19 20 21 22 23 24 25 26 27 28 29 30 31 32 33 34 35 36 37 38 39 40 41 42 43 44 45 46 47 48 49 50
000
ASUS41 KALY 020010
RWRALY

NEW YORK STATE HOURLY WEATHER ROUNDUP
NATIONAL WEATHER SERVICE ALBANY NY
800 PM EDT TUE SEP 01 2015

NOTE: "FAIR" INDICATES FEW OR NO CLOUDS BELOW 12,000 FEET WITH NO
SIGNIFICANT WEATHER AND/OR NO OBSTRUCTIONS TO VISIBILITY.

NYZ032-033-038>043-046>054-057>066-NYZ062>081-020100-
EAST


CITY           SKY/WX    TMP DP  RH WIND       PRES   REMARKS
ALBANY         PTCLDY    77  63  61 CALM      30.02R
GLENS FALLS    CLEAR     75  64  68 S3        30.00S
POUGHKEEPSIE   CLEAR     75  64  68 CALM      30.01R
NEWBURGH       CLEAR     81  63  54 CALM      30.04S
MONTGOMERY     CLEAR     73  66  78 CALM      30.03R
WHITE PLAINS   CLEAR     75  64  68 CALM      30.04R
ISLIP          PTCLDY    75  65  70 S6        30.02R
NEW YORK CITY  CLEAR     78  64  61 S9        30.02R
CENTRAL PARK   CLEAR     79  63  57 VRB3      30.05R
$$

NYZ005>009-017-018-044>046-055-056-020100-
CENTRAL


CITY           SKY/WX    TMP DP  RH WIND       PRES   REMARKS
FULTON         CLEAR     71  68  90 CALM      30.04S FOG
SYRACUSE       CLEAR     73  69  87 E3        30.04S
ROME           CLEAR     71  67  87 CALM      30.06S
ELMIRA         CLEAR     72  67  84 CALM      30.04S
BINGHAMTON     PTCLDY    75  65  70 CALM      30.09R
MONTICELLO     CLEAR     72  63  73 CALM      30.09S
$$

NYZ026>034-041>043-020100-
NORTH


CITY           SKY/WX    TMP DP  RH WIND       PRES   REMARKS
WATERTOWN      CLEAR     70  66  87 SW3       30.03S FOG
FORT DRUM      NOT AVBL
MASSENA        CLEAR     74  66  76 SW7       30.01R
SARANAC LAKE   CLEAR     72  64  76 VRB3      30.06R
PLATTSBURGH    CLEAR     72  62  71 NW5       29.99R
$$

NYZ001>004-010>016-019>021-020100-
WEST


CITY           SKY/WX    TMP DP  RH WIND       PRES   REMARKS
NIAGARA FALLS  CLEAR     74  68  81 S9        30.03S
BUFFALO        CLEAR     74  68  81 SW7       30.05S HAZE
DUNKIRK        CLEAR     72  68  87 SW5       30.06S
JAMESTOWN      CLEAR     72  63  73 W8        30.12R
WELLSVILLE     CLEAR     75  61  61 W6        30.13S
ROCHESTER      CLEAR     76  67  73 E3        30.04S
PENN YAN       CLEAR     71  66  84 CALM      30.06S
$$

             KEY
       WCI = WIND CHILL INDEX
       VSB = VISIBILITY
       HX  = HEAT INDEX
$$


USA.gov is the U.S. government's official web portal to all federal, state and local government web resources and services.